JCSAT-18 (KACIFIC 1)

Last updated on Thu Jul 03 2025 00:02:48 GMT+0000 (Coordinated Universal Time)

1 44868U 19091A 25183.53810929 -.00000194 00000+0 00000+0 0 9999 2 44868 0.0381 204.8049 0000249 22.9262 36.7954 1.00270653 20504
UTC large
Height (km)
Speed (km/s)
/
Latitude / Longitude
Inclination (degrees)
Orbital Period (minutes)
Azimuth
Elevation
Range (km)
Doppler Factor

Next 0 passes for location: London (51.5072 / 0.1276)

Sorry there are no passes over London.